Location: Unspecified
(50.7693°N, 0.0000°E)
Time: 07:31:21
(UTC+00:00)

A-11 Canister half - Pass Details

Date: 23 June 2019
Orbit: 1526 x 1683 km, 47.3° (Epoch: 19 July)

Event Time Altitude Azimuth Distance (km) Brightness Sun altitude
Rises 04:26:40 0° 226° (SW) 4,750 10.9 4.2°
Reaches altitude 10° 04:29:53 10° 221° (SW) 3,748 10.5 4.6°
Maximum altitude 04:38:46 48° 151° (SSE) 1,932 9.7 5.8°
Drops below altitude 10° 04:47:31 10° 81° (E) 3,697 12.7 7.0°
Sets 04:50:40 0° 76° (ENE) 4,681 13.4 7.5°
